Location: Vancouver
(49.2827°N, 123.1207°W)
Time: 04:54:25
(UTC-07:00)

Envisat - Visible Passes

Search period start: 23 May 2024 00:00
Search period end: 02 June 2024 00:00
Orbit: 762 x 764 km, 98.3° (Epoch: 22 May)

Date Brightness Start Highest point End Pass type
(mag) Time Alt. Az. Time Alt. Az. Time Alt. Az.
23 May 5.7 02:57:55 10° ENE 02:58:59 11° E 03:00:03 10° E visible
23 May 3.3 04:33:46 10° NNE 04:38:52 73° ESE 04:43:55 10° S visible
24 May 4.4 03:56:41 10° NNE 04:01:21 35° E 04:05:59 10° SSE visible
25 May 5.4 03:20:14 10° NE 03:23:37 18° E 03:26:59 10° SE visible
26 May 3.6 04:20:43 10° NNE 04:25:44 57° E 04:30:43 10° S visible
27 May 4.8 03:43:48 10° NE 03:48:09 28° E 03:52:28 10° SSE visible
28 May 5.5 03:07:48 10° NE 03:10:20 14° E 03:12:51 10° ESE visible
29 May 4.0 04:07:42 10° NNE 04:12:35 44° E 04:17:24 10° S visible
30 May 5.1 03:30:59 10° NE 03:34:54 22° E 03:38:48 10° SE visible
31 May 5.8 02:56:18 10° ENE 02:57:01 10° E 02:57:44 10° E visible
31 May 3.3 04:31:49 10° NNE 04:36:55 71° ESE 04:41:58 10° S visible
01 Jun 4.4 03:54:44 10° NNE 03:59:23 34° E 04:04:00 10° SSE visible
